sat.trackr.live / text

‹ back to catalog

STARLINK-4429

NORAD 53495 · 2022-099AG

PAYLOAD ACTIVE UNKNOWN

§ Identity

Operator
Country
US
Launch date
2022-08-12
Launch site
AFWTR
Launch vehicle
Mass (kg)
RCS (m²)

Purposes: comms

External: N2YO · Heavens-Above · Gunter

§ Orbital elements

Epoch: 2026-05-24T21:33:59.982624Z

Period
95.64 min
Inclination
97.4489°
Eccentricity
0.0001225
Mean motion
15.05644759 rev/d
Perigee alt
548.7 km
Apogee alt
550.4 km
Semi-major
6,927.7 km
B*
9.9497e-5
RAAN
264.8326°
Arg perigee
148.2388°
Mean anomaly
211.8913°
Rev number
20,744

§ Raw data

STARLINK-44291 53495U 22099AG  26144.89861091  .00001377  00000+0  99497-4 0  99962 53495  97.4489 264.8326 0001225 148.2388 211.8913 15.05644759207442

JSON: /api/v1/satellites/53495 · /tle

For live sub-satellite position, see the globe view (requires WebGL).

§ Visibility from observer

Set your observer location to see the next 7 days of passes ≥ 10°. The values pass through the URL so the page stays shareable.

No JS? Fill the form by hand. The geolocation button needs JavaScript.